TimeEDT,TemperatureF,Dew PointF,Humidity,Sea Level PressureIn,VisibilityMPH,Wind Direction,Wind SpeedMPH,Gust SpeedMPH,PrecipitationIn,Events,Conditions,WindDirDegrees,DateUTC
12:15 AM,66.2,66.2,100,30.05,7.0,Calm,Calm,-,N/A,,Clear,0,2013-05-21 04:15:00
12:35 AM,66.2,66.2,100,30.04,7.0,Calm,Calm,-,N/A,,Clear,0,2013-05-21 04:35:00
12:55 AM,66.2,66.2,100,30.03,8.0,Calm,Calm,-,N/A,,Clear,0,2013-05-21 04:55:00
1:15 AM,66.2,66.2,100,30.02,7.0,Calm,Calm,-,N/A,,Clear,0,2013-05-21 05:15:00
1:35 AM,66.2,66.2,100,30.01,9.0,Calm,Calm,-,N/A,,Clear,0,2013-05-21 05:35:00
1:55 AM,66.2,66.2,100,30.01,5.0,Calm,Calm,-,N/A,,Clear,0,2013-05-21 05:55:00
2:15 AM,64.4,64.4,100,30.01,5.0,Calm,Calm,-,N/A,,Clear,0,2013-05-21 06:15:00
2:35 AM,64.4,64.4,100,30.00,5.0,Calm,Calm,-,N/A,,Clear,0,2013-05-21 06:35:00
2:55 AM,64.4,64.4,100,30.01,5.0,Calm,Calm,-,N/A,,Clear,0,2013-05-21 06:55:00
3:15 AM,64.4,64.4,100,30.01,1.5,Calm,Calm,-,N/A,,Clear,0,2013-05-21 07:15:00
3:35 AM,64.4,64.4,100,30.01,5.0,Calm,Calm,-,N/A,,Clear,0,2013-05-21 07:35:00
3:55 AM,64.4,64.4,100,30.01,4.0,Calm,Calm,-,N/A,,Clear,0,2013-05-21 07:55:00
4:15 AM,64.4,64.4,100,30.02,5.0,Calm,Calm,-,N/A,,Scattered Clouds,0,2013-05-21 08:15:00
4:35 AM,64.4,64.4,100,30.02,4.0,Calm,Calm,-,N/A,,Overcast,0,2013-05-21 08:35:00
4:55 AM,64.4,64.4,100,30.02,5.0,Calm,Calm,-,N/A,,Overcast,0,2013-05-21 08:55:00
5:15 AM,66.2,66.2,100,30.03,7.0,Calm,Calm,-,N/A,,Overcast,0,2013-05-21 09:15:00
5:35 AM,64.4,64.4,100,30.03,7.0,Calm,Calm,-,N/A,,Overcast,0,2013-05-21 09:35:00
5:55 AM,64.4,64.4,100,30.03,5.0,Calm,Calm,-,N/A,,Overcast,0,2013-05-21 09:55:00
6:15 AM,64.4,64.4,100,30.04,0.2,Calm,Calm,-,N/A,Fog,Fog,0,2013-05-21 10:15:00
6:35 AM,64.4,64.4,100,30.04,0.2,Calm,Calm,-,N/A,Fog,Fog,0,2013-05-21 10:35:00
6:50 AM,64.4,64.4,100,30.04,0.2,Calm,Calm,-,N/A,Fog,Fog,0,2013-05-21 10:50:00
7:50 AM,66.2,66.2,100,30.06,2.5,Calm,Calm,-,N/A,,Clear,0,2013-05-21 11:50:00
8:10 AM,68.0,68.0,100,30.06,7.0,Calm,Calm,-,N/A,,Clear,0,2013-05-21 12:10:00
8:50 AM,71.6,71.6,100,30.07,10.0,Calm,Calm,-,N/A,,Scattered Clouds,0,2013-05-21 12:50:00
9:25 AM,75.2,71.6,89,30.07,7.0,Calm,Calm,-,N/A,,Mostly Cloudy,0,2013-05-21 13:25:00
9:50 AM,77.0,71.6,83,30.07,7.0,SSE,5.8,-,N/A,,Mostly Cloudy,160,2013-05-21 13:50:00
10:50 AM,78.8,71.6,78,30.07,10.0,SSE,4.6,-,N/A,,Mostly Cloudy,150,2013-05-21 14:50:00
11:50 AM,80.6,68.0,65,30.06,10.0,SE,6.9,-,N/A,,Scattered Clouds,130,2013-05-21 15:50:00
12:50 PM,82.4,68.0,62,30.05,7.0,East,5.8,-,N/A,,Mostly Cloudy,90,2013-05-21 16:50:00
1:34 PM,71.6,71.6,100,30.05,2.0,ENE,8.1,-,N/A,Rain,Rain,60,2013-05-21 17:34:00
1:50 PM,71.6,69.8,94,30.05,3.0,ENE,5.8,-,N/A,Rain,Light Rain,60,2013-05-21 17:50:00
2:50 PM,73.4,71.6,94,30.03,10.0,Calm,Calm,-,N/A,,Mostly Cloudy,0,2013-05-21 18:50:00
3:50 PM,78.8,68.0,69,30.02,10.0,ESE,8.1,-,N/A,,Mostly Cloudy,120,2013-05-21 19:50:00
4:50 PM,78.8,68.0,69,30.00,10.0,ESE,9.2,-,N/A,,Partly Cloudy,120,2013-05-21 20:50:00
5:50 PM,78.8,71.6,78,29.97,10.0,East,8.1,-,N/A,,Partly Cloudy,90,2013-05-21 21:50:00
6:50 PM,77.0,68.0,74,29.98,10.0,ESE,5.8,-,N/A,,Mostly Cloudy,120,2013-05-21 22:50:00
7:50 PM,75.2,71.6,89,30.00,10.0,East,6.9,-,N/A,,Partly Cloudy,100,2013-05-21 23:50:00
8:15 PM,73.4,71.6,94,30.00,10.0,East,3.5,-,N/A,,Clear,90,2013-05-22 00:15:00
8:35 PM,73.4,69.8,88,30.00,10.0,Calm,Calm,-,N/A,,Clear,0,2013-05-22 00:35:00
8:55 PM,73.4,69.8,88,30.00,10.0,ENE,3.5,-,N/A,,Clear,70,2013-05-22 00:55:00
9:15 PM,73.4,69.8,88,30.01,10.0,East,3.5,-,N/A,,Clear,80,2013-05-22 01:15:00
9:35 PM,71.6,69.8,94,30.01,10.0,East,4.6,-,N/A,,Clear,90,2013-05-22 01:35:00
9:55 PM,71.6,69.8,94,30.01,10.0,East,3.5,-,N/A,,Clear,100,2013-05-22 01:55:00
10:15 PM,71.6,69.8,94,30.02,10.0,Calm,Calm,-,N/A,,Clear,0,2013-05-22 02:15:00
10:35 PM,71.6,69.8,94,30.01,10.0,Calm,Calm,-,N/A,,Clear,0,2013-05-22 02:35:00
10:55 PM,71.6,71.6,100,30.01,10.0,Calm,Calm,-,N/A,,Clear,0,2013-05-22 02:55:00
11:15 PM,69.8,69.8,100,30.00,10.0,Calm,Calm,-,N/A,,Clear,0,2013-05-22 03:15:00
11:35 PM,69.8,69.8,100,30.00,10.0,Calm,Calm,-,N/A,,Clear,0,2013-05-22 03:35:00
11:55 PM,68.0,68.0,100,30.00,8.0,Calm,Calm,-,N/A,,Clear,0,2013-05-22 03:55:00